This demonstration page uses our WeatherBlox Daily Observations layout. Learn more.

Left ArrowRight Arrow

Hourly Observations for January 8, 2017

Temp ( °F °C ) Dew Point ( °F °C ) Humidity (%) Winds ( mph kmh ) Pressure ( in mb ) Visibility ( mi km ) Precip ( " mm )
12:53 am 00:53 Clear 29 -1.7 8 -13.3 41 41 ESE 9 15 30.50 1033 10 16 0.00 0.00
1:53 am 01:53 Clear 28 -2.2 9 -12.8 44 44 SE 12 19 30.48 1032 10 16 0.00 0.00
2:53 am 02:53 Clear 27 -2.8 10 -12.2 49 49 SE 9 15 30.48 1032 10 16 0.00 0.00
3:53 am 03:53 Clear 26 -3.3 10 -12.2 51 51 SE 7 11 30.47 1032 10 16 0.00 0.00
4:53 am 04:53 Clear 26 -3.3 10 -12.2 51 51 ESE 9 15 30.45 1031 10 16 0.00 0.00
5:53 am 05:53 Clear 26 -3.3 10 -12.2 51 51 SE 12 19 30.43 1030 10 16 0.00 0.00
6:53 am 06:53 Clear 25 -3.9 11 -11.7 55 55 SE 8 13 30.43 1031 10 16 0.00 0.00
7:53 am 07:53 Clear 25 -3.9 11 -11.7 55 55 SE 9 15 30.41 1030 10 16 0.00 0.00
8:53 am 08:53 Sunny 28 -2.2 12 -11.1 51 51 SSE 10 17 30.42 1030 10 16 0.00 0.00
9:53 am 09:53 Sunny 32 0 12 -11.1 43 43 SE 7 11 30.43 1030 10 16 0.00 0.00
10:53 am 10:53 Sunny 38 3.3 12 -11.1 34 34 ESE 5 7 30.42 1030 10 16 0.00 0.00
11:53 am 11:53 Sunny 43 6.1 13 -10.6 29 29 ESE 5 7 30.40 1029 10 16 0.00 0.00
12:53 pm 12:53 Sunny 49 9.4 15 -9.4 26 26 SSE 6 9 30.33 1027 10 16 0.00 0.00
1:53 pm 13:53 Sunny 54 12.2 17 -8.3 23 23 Calm 30.28 1026 10 16 0.00 0.00
2:53 pm 14:53 Sunny 58 14.4 19 -7.2 22 22 SSW 7 11 30.24 1024 10 16 0.00 0.00
3:10 pm 15:10 Mostly Sunny 60 15.6 20 -6.7 21 21 SSW 9 15 30.15 1021 10 16 0.00 0.00
3:53 pm 15:53 Sunny 61 16.1 21 -6.1 21 21 SSW 8 13 30.22 1023 10 16 0.00 0.00
4:53 pm 16:53 Sunny 62 16.7 21 -6.1 21 21 SSE 9 15 30.22 1023 10 16 0.00 0.00
5:53 pm 17:53 Sunny 57 13.9 22 -5.6 26 26 SSE 8 13 30.23 1024 10 16 0.00 0.00
6:53 pm 18:53 Clear 50 10 23 -5 35 35 S 9 15 30.24 1024 10 16 0.00 0.00
7:53 pm 19:53 Clear 48 8.9 22 -5.6 36 36 SE 9 15 30.27 1025 10 16 0.00 0.00
8:53 pm 20:53 Clear 44 6.7 21 -6.1 40 40 SSE 7 11 30.28 1025 10 16 0.00 0.00
9:53 pm 21:53 Clear 41 5 21 -6.1 45 45 ESE 7 11 30.28 1025 10 16 0.00 0.00
10:53 pm 22:53 Clear 40 4.4 20 -6.7 45 45 ESE 3 6 30.27 1025 10 16 0.00 0.00
11:53 pm 23:53 Clear 39 3.9 19 -7.2 45 45 SE 5 7 30.25 1024 10 16 0.00 0.00

Powered by AerisWeather